Regional Weather Roundup
Issued by NWS Dallas/Fort Worth, TX

Home | Current Version | Previous Version | Text Only | Print | Product List | Glossary On
Versions: 1 2 3 4 5 6 7 8 9 10 11 12 13 14 15 16 17 18 19 20 21 22 23 24 25 26 27 28 29 30 31 32 33 34 35 36 37 38 39 40 41 42 43 44 45 46 47 48 49 50
000
ASUS44 KFWD 201515
RWRFWD
NORTH TEXAS HOURLY WEATHER ROUNDUP
NATIONAL WEATHER SERVICE FORT WORTH TX
1000 AM CDT FRI APR 20 2018

NOTE: "FAIR" INDICATES FEW OR NO CLOUDS BELOW 12,000 FEET WITH NO
SIGNIFICANT WEATHER AND/OR OBSTRUCTIONS TO VISIBILITY.

TXZ118-119-201600-
DALLAS/FORT WORTH METROPLEX

CITY           SKY/WX    TMP DP  RH WIND       PRES   REMARKS
DFW AIRPORT    FAIR      55  35  47 E16       30.29S
DALLAS LOVE    FAIR      56  35  45 E15       30.30S
FTW MEACHAM    FAIR      58  37  45 SE18G25   30.29S
DAL-EXECUTIVE  FAIR      55  36  48 E17       30.29S
FTW-ALLIANCE   PTSUNNY   57  37  47 SE14      30.30S
FTW-NAS-JRB    PTSUNNY   57  34  41 SE21G26   30.30S
FTW-SPINKS     SUNNY     57  39  51 SE14G21   30.30F
ARLINGTON      FAIR      55  36  48 E18       30.30S
GRAND PRAIRIE  SUNNY     54  34  47 E17G28    30.32S
ADDISON        SUNNY     55  36  47 E16       30.31R
MESQUITE       SUNNY     55  36  47 E17       30.33R
LANCASTER      FAIR      55  34  45 E16       30.31F
$$

TXZ091>094-102>105-117-120-121-131>134-201600-
NORTH CENTRAL TEXAS

CITY           SKY/WX    TMP DP  RH WIND       PRES   REMARKS
SHRMAN/DENISON FAIR      53  35  49 E17G25    30.33S
GAINESVILLE    FAIR      54  33  45 SE17      30.33R
BOWIE          FAIR      55  36  50 SE15G23   30.29S
BRIDGEPORT     FAIR      56  36  47 E13G22    30.30S
DECATUR        FAIR      55  35  46 E14G23    30.28F
DENTON         FAIR      56  37  49 E16G22    30.31S
MCKINNEY       FAIR      53  35  50 E17G23    30.32R
BONHAM         FAIR      52  35  52 E17G23    30.34S
GREENVILLE     FAIR      55  36  47 E9        30.33S
ROCKWALL       FAIR      54  37  51 MISG      30.32S
TERRELL        FAIR      55  36  48 E14       30.33R
WAXAHACHIE     FAIR      55  37  52 E12G18    30.31F
GRANBURY       FAIR      57  40  52 SE13G18   30.29F
$$

TXZ083>090-098>101-113>116-127>130-139>142-154-155-201600-
WESTERN NORTH TEXAS

CITY           SKY/WX    TMP DP  RH WIND       PRES   REMARKS
WICHITA FALLS  PTSUNNY   57  38  48 SE21      30.26S
WF-KICKAPOO    FAIR      56  38  52 SE22G31   30.29R
VERNON         FAIR      57  38  49 SE18G25   30.24S
ABILENE        FAIR      58  38  47 SE24G37   30.18F
ABILENE-DYESS  SUNNY     61  21  21 E25       30.17F
GRAHAM           N/A     57  39  52 SE15G22   30.23F
BRECKENRIDGE   FAIR      62  38  40 SE14G22   30.22F
CISCO          FAIR      57  39  51 SE23G35   30.21S
EASTLAND       FAIR      58  40  49 SE16G24   30.22S
RANGER         FAIR      58  40  51 SE18G25   30.23S
MINERAL WELLS  FAIR      58  37  45 E21       30.26R
STEPHENVILLE   FAIR      56  41  57 SE17G23   30.27S
COMANCHE       FAIR      58  42  56 SE20      30.23S
BROWNWOOD      FAIR      61  39  44 SE16G23   30.21S
COLEMAN        FAIR      61  37  41 SE22G28   30.19F
BRADY          FAIR      57  37  47 SE20G29   30.18F
$$

TXZ143>147-156>162-174-175-201600-
CENTRAL TEXAS

CITY           SKY/WX    TMP DP  RH WIND       PRES   REMARKS
WACO           FAIR      58  39  49 E15       30.30R
WACO-TSTC      SUNNY     55  39  54 SE9       30.30S
WACO-MCGREGOR  FAIR      57  41  55 E12       30.29S
HILLSBORO      FAIR      55  39  55 E12G20    30.29R
CORSICANA      FAIR      55  36  48 E18       30.31F
MEXIA          FAIR      54  36  52 E13G20    30.28F
HEARNE         FAIR      56  42  58 E8        30.30S
CAMERON        FAIR      59  42  54 E12G17    30.29R
TEMPLE         FAIR      57  43  59 E15       30.28S
KILLEEN        PTSUNNY   57  41  54 E14G22    30.26S
KILLEEN-SKYLRK FAIR      59  43  55 SE15G21   30.27S
FORT HOOD      CLOUDY    57  42  55 SE18      30.23S
GATESVILLE     FAIR      57  41  54 E7G16     30.28S
HAMILTON       FAIR      58  43  58 SE20      30.25F
LAMPASAS       FAIR      56  44  63 E13       30.22F
$$

TXZ095>097-106>112-122>126-135>138-148>153-164>167-201600-
EAST TEXAS

CITY           SKY/WX    TMP DP  RH WIND       PRES   REMARKS
PARIS          FAIR      52  36  54 E20G25    30.35F
SULPHUR SPRNGS FAIR      52  37  56 E15       30.36S
MOUNT PLEASANT FAIR      52  37  57 E16       30.36S
GILMER         FAIR      51  36  55 E12G18    30.34S
MINEOLA        FAIR      52  37  58 E7        30.33S
TYLER          FAIR      53  34  48 E10       30.32R
LONGVIEW       FAIR      52  39  61 E13       30.32F
MARSHALL       FAIR      53  37  55 E9G18     30.36S
ATHENS         FAIR      54  36  50 E9        30.31S
PALESTINE      FAIR      53  39  58 E13       30.33R
JACKSONVILLE   FAIR      51  39  64 E8        30.33R
HENDERSON      FAIR      52  37  55 E9G17     30.33R
CENTER         FAIR      52  37  56 E6G17     30.34S
NACOGDOCHES      N/A     51  39  63 E9        30.31F
LUFKIN         FAIR      53  39  59 E12G18    30.30S
$$

SUPPLEMENTAL OBSERVATIONS (NWS FORT WORTH AREA)

CITY           SKY/WX    TMP DP  RH WIND       PRES   REMARKS
DENISON DAM      N/A     52  32  46 E16         N/A
CADDO GRASSLND   N/A     54  36  50 E7G16       N/A
LBJ GRASSLAND    N/A     55  34  44 E13G23      N/A
POSSUM KINGDOM   N/A     57  39  51 SE16G24     N/A
GRANBURY         N/A     55  37  50 SE16G22     N/A
MCGREGOR         N/A     57  39  51 E13         N/A
TEMPLE           N/A     57  41  54 E14         N/A
PALESTINE        N/A     54  37  54 E7G15       N/A
$$

SUPPLEMENTAL OBSERVATIONS (NWS NORMAN AREA)

CITY           SKY/WX    TMP DP  RH WIND       PRES   REMARKS
GOODLETT         N/A     57  35  44 SE21      30.21F
ODELL            N/A     57  39  51 SE22      30.24F
CROWELL          N/A     59  37  43 SE18      30.23F
KNOX CITY        N/A     59  35  39 SE21G28   30.21F
SEYMOUR          N/A     59  38  46 SE18G26   30.23S
MILLERS CREEK    N/A     61  39  44 SE17G25     N/A
$$

SUPPLEMENTAL OBSERVATIONS (NWS SAN ANGELO AREA)

CITY           SKY/WX    TMP DP  RH WIND       PRES   REMARKS
WEINERT          N/A     60  37  43 SE18      30.22S
HASKELL          N/A     58  36  42 SE16      30.20F
THROCKMORTON     N/A     59  40  48 SE16      30.23F
STAMFORD         N/A     60  38  44 SE17G23   30.21R
CLYDE            N/A     58  38  47 SE18      30.20S
HAMBY            N/A     63  37  39 SE14G26     N/A
IVIE RESERVOIR   N/A     63  36  36 SE22G29     N/A
COLORADO BEND    N/A     63  41  45 SE17G24     N/A
$$

SUPPLEMENTAL OBSERVATIONS (NWS SHREVEPORT AREA)

CITY           SKY/WX    TMP DP  RH WIND       PRES   REMARKS
TEXARKANA        N/A     54  36  50 E6G14       N/A
LINDEN           N/A     54  36  50 E6G15       N/A
LUFKIN           N/A     52  39  62 MISG        N/A
N SABINE NF      N/A     54  37  54 MISG        N/A
$$

SUPPLEMENTAL OBSERVATIONS ARE A COLLECTION OF AUTOMATED INSTRUMENTS
THAT ARE MAINTAINED BY A VARIETY OF FEDERAL AND STATE AGENCIES.
CERTAIN ELEMENTS...SUCH AS HUMIDITY VALUES AND SUSTAINED WIND
SPEEDS...MAY BE APPROXIMATED.





USA.gov is the U.S. government's official web portal to all federal, state and local government web resources and services.